Location: Baix
(44.7118°N, 4.7648°E)
Time: 03:28:48
(UTC+00:00)

SL-16 R/B - Pass Details

Date: 07 August 2020
Orbit: 841 x 849 km, 71.0° (Epoch: 25 September)

Event Time Altitude Azimuth Distance (km) Brightness Sun altitude
Rises 03:44:44 0° 317° (NW) 3,420 5.3 -8.6°
Reaches altitude 10° 03:48:25 10° 293° (WNW) 2,478 4.3 -8.0°
Maximum altitude 03:51:11 14° 263° (W) 2,205 3.8 -7.6°
Drops below altitude 10° 03:53:56 10° 234° (SW) 2,467 3.9 -7.2°
Enters shadow 03:54:56 - 226° (SW) 2,671 4.2 -7.0°
